Medford, WI

5:33 PM CDT on May 24, 2017 (GMT -0500)
Taylor County

Weather History for KMDZ - September, 2012

Change the Weather History Date:

Monday, September 24, 2012

  Actual Average Record
Temperature  
Mean Temperature 52 °F -  
Max Temperature 71 °F 59 °F 82 °F (2007)
Min Temperature 33 °F 38 °F 23 °F (1976)
Degree Days  
Heating Degree Days 13    
Growing Degree Days 2 (Base 50)    
Moisture  
Dew Point 33 °F    
Average Humidity 50    
Maximum Humidity 81    
Minimum Humidity 25    
Precipitation  
Precipitation 0.00 in - - ()
Sea Level Pressure  
Sea Level Pressure 29.88 in    
Wind  
Wind Speed 10 mph (WSW)    
Max Wind Speed 26 mph    
Max Gust Speed 37 mph    
Visibility 10 miles    
Events      
Averages and records for this station are not official NWS values.
T = Trace of Precipitation, MM = Missing Value Source: NWS Daily Summary

Daily Weather History Graph

Daily Weather History Graph

Search for Another Location

Airport or City:

Trip Planner

Search our weather history database for the weather conditions in past years. The results will help you decide how hot, cold, wet, or windy it might be!

Date:

Astronomy

Sep. 24, 2012 Rise Set
Actual Time 6:51 AM CDT 6:53 PM CDT
Civil Twilight 6:21 AM CDT 7:23 PM CDT
Nautical Twilight 5:47 AM CDT 7:57 PM CDT
Astronomical Twilight 5:12 AM CDT 8:32 PM CDT
Moon 3:51 PM CDT 12:54 AM CDT
Length of Visible Light 13h 01m
Length of Day
12h 02m
Waxing Gibbous, 71% of the Moon is Illuminated
Sep 24
Waxing Gibbous
Sep 29
Full
Oct 8
Last Quarter
Oct 15
New
Oct 21
First Quarter

Hourly Weather History & Observations

Time (CDT) Temp. Windchill Dew Point Humidity Pressure Visibility Wind Dir Wind Speed Gust Speed Precip Events Conditions
12:15 AM 35.6 °F 31.7 °F 28.4 °F 75% 30.12 in 10.0 mi SSW 4.6 mph - N/A   Unknown
12:35 AM 33.8 °F 28.6 °F 28.4 °F 81% 30.11 in 10.0 mi SW 5.8 mph - N/A   Unknown
12:55 AM 35.6 °F 31.7 °F 30.2 °F 81% 30.11 in 10.0 mi SW 4.6 mph - N/A   Unknown
1:15 AM 37.4 °F 34.9 °F 30.2 °F 75% 30.11 in 10.0 mi SW 3.5 mph - N/A   Unknown
1:35 AM 35.6 °F 32.8 °F 30.2 °F 81% 30.11 in 10.0 mi SW 3.5 mph - N/A   Unknown
1:55 AM 35.6 °F 31.7 °F 30.2 °F 81% 30.10 in 10.0 mi SW 4.6 mph - N/A   Unknown
2:35 AM 37.4 °F 32.1 °F 30.2 °F 75% 30.08 in 10.0 mi SW 6.9 mph - N/A   Unknown
2:55 AM 37.4 °F 30.8 °F 30.2 °F 75% 30.07 in 10.0 mi SW 9.2 mph - N/A   Unknown
3:15 AM 37.4 °F 32.1 °F 30.2 °F 75% 30.07 in 10.0 mi SW 6.9 mph - N/A   Unknown
3:35 AM 37.4 °F 31.4 °F 30.2 °F 75% 30.06 in 10.0 mi SW 8.1 mph - N/A   Unknown
3:55 AM 37.4 °F 31.4 °F 30.2 °F 75% 30.06 in 10.0 mi SW 8.1 mph - N/A   Unknown
4:15 AM 37.4 °F 32.8 °F 30.2 °F 75% 30.06 in 10.0 mi WSW 5.8 mph - N/A   Unknown
4:35 AM 37.4 °F 32.8 °F 30.2 °F 75% 30.05 in 10.0 mi SW 5.8 mph - N/A   Unknown
4:55 AM 37.4 °F 30.8 °F 30.2 °F 75% 30.04 in 10.0 mi SW 9.2 mph - N/A   Unknown
5:15 AM 37.4 °F 32.1 °F 30.2 °F 75% 30.03 in 10.0 mi SW 6.9 mph - N/A   Unknown
5:35 AM 37.4 °F 30.8 °F 30.2 °F 75% 30.02 in 10.0 mi WSW 9.2 mph - N/A   Unknown
5:55 AM 39.2 °F 32.5 °F 30.2 °F 70% 30.02 in 10.0 mi SW 10.4 mph - N/A   Unknown
6:15 AM 37.4 °F 30.8 °F 30.2 °F 75% 30.01 in 10.0 mi SW 9.2 mph - N/A   Unknown
6:35 AM 37.4 °F 30.8 °F 30.2 °F 75% 30.01 in 10.0 mi SW 9.2 mph - N/A   Unknown
6:55 AM 37.4 °F 32.1 °F 30.2 °F 75% 30.01 in 10.0 mi SW 6.9 mph - N/A   Unknown
7:15 AM 37.4 °F 31.4 °F 30.2 °F 75% 29.99 in 10.0 mi SW 8.1 mph - N/A   Unknown
7:35 AM 39.2 °F 32.0 °F 30.2 °F 70% 29.99 in 10.0 mi SW 11.5 mph - N/A   Unknown
7:55 AM 39.2 °F 32.5 °F 30.2 °F 70% 29.98 in 10.0 mi SW 10.4 mph 17.3 mph N/A   Unknown
8:15 AM 41.0 °F 35.2 °F 30.2 °F 65% 29.97 in 10.0 mi SW 9.2 mph - N/A   Unknown
8:35 AM 42.8 °F 36.6 °F 30.2 °F 61% 29.96 in 10.0 mi SW 11.5 mph 16.1 mph N/A   Unknown
8:55 AM 46.4 °F 40.4 °F 30.2 °F 53% 29.95 in 10.0 mi SW 13.8 mph 20.7 mph N/A   Unknown
9:55 AM 51.8 °F - 28.4 °F 41% 29.92 in 10.0 mi WSW 18.4 mph 27.6 mph N/A   Unknown
10:15 AM 53.6 °F - 30.2 °F 41% 29.92 in 10.0 mi WSW 16.1 mph - N/A   Unknown
10:35 AM 55.4 °F - 30.2 °F 38% 29.90 in 10.0 mi WSW 19.6 mph 27.6 mph N/A   Unknown
10:55 AM 57.2 °F - 30.2 °F 36% 29.89 in 10.0 mi WSW 17.3 mph 29.9 mph N/A   Unknown
11:15 AM 59.0 °F - 32.0 °F 36% 29.88 in 10.0 mi WSW 17.3 mph 23.0 mph N/A   Unknown
11:35 AM 60.8 °F - 32.0 °F 34% 29.87 in 10.0 mi WSW 24.2 mph 32.2 mph N/A   Unknown
11:55 AM 62.6 °F - 32.0 °F 32% 29.85 in 10.0 mi WSW 19.6 mph 31.1 mph N/A   Unknown
12:15 PM 62.6 °F - 32.0 °F 32% 29.84 in 10.0 mi WSW 26.5 mph 32.2 mph N/A   Unknown
12:35 PM 64.4 °F - 32.0 °F 30% 29.84 in 10.0 mi WSW 25.3 mph 32.2 mph N/A   Unknown
12:55 PM 64.4 °F - 33.8 °F 32% 29.82 in 10.0 mi WSW 21.9 mph 31.1 mph N/A   Unknown
1:15 PM 66.2 °F - 33.8 °F 30% 29.81 in 10.0 mi WSW 25.3 mph 32.2 mph N/A   Unknown
1:35 PM 66.2 °F - 33.8 °F 30% 29.79 in 10.0 mi WSW 21.9 mph 33.4 mph N/A   Unknown
1:55 PM 68.0 °F - 33.8 °F 28% 29.79 in 10.0 mi WSW 19.6 mph 29.9 mph N/A   Unknown
2:15 PM 69.8 °F - 33.8 °F 27% 29.77 in 10.0 mi WSW 24.2 mph 31.1 mph N/A   Unknown
2:35 PM 69.8 °F - 33.8 °F 27% 29.76 in 10.0 mi WSW 20.7 mph 31.1 mph N/A   Unknown
2:55 PM 69.8 °F - 33.8 °F 27% 29.75 in 10.0 mi SW 25.3 mph 34.5 mph N/A   Unknown
3:15 PM 71.6 °F - 33.8 °F 25% 29.75 in 10.0 mi WSW 19.6 mph 31.1 mph N/A   Unknown
3:35 PM 71.6 °F - 33.8 °F 25% 29.73 in 10.0 mi West 20.7 mph 32.2 mph N/A   Unknown
3:55 PM 71.6 °F - 33.8 °F 25% 29.72 in 10.0 mi WSW 21.9 mph 36.8 mph N/A   Unknown
4:15 PM 71.6 °F - 33.8 °F 25% 29.71 in 10.0 mi WSW 20.7 mph 28.8 mph N/A   Unknown
4:35 PM 71.6 °F - 33.8 °F 25% 29.71 in 10.0 mi WSW 23.0 mph 31.1 mph N/A   Unknown
4:55 PM 71.6 °F - 33.8 °F 25% 29.71 in 10.0 mi WSW 24.2 mph 32.2 mph N/A   Unknown
5:15 PM 71.6 °F - 33.8 °F 25% 29.70 in 10.0 mi WSW 21.9 mph 27.6 mph N/A   Unknown
5:35 PM 71.6 °F - 33.8 °F 25% 29.70 in 10.0 mi WSW 18.4 mph 25.3 mph N/A   Unknown
5:55 PM 71.6 °F - 35.6 °F 27% 29.71 in 10.0 mi WSW 13.8 mph 21.9 mph N/A   Unknown
6:15 PM 69.8 °F - 35.6 °F 28% 29.71 in 10.0 mi West 10.4 mph 19.6 mph N/A   Unknown
6:35 PM 69.8 °F - 33.8 °F 27% 29.72 in 10.0 mi West 11.5 mph 20.7 mph N/A   Unknown
6:55 PM 66.2 °F - 33.8 °F 30% 29.72 in 10.0 mi West 8.1 mph - N/A   Unknown
7:15 PM 64.4 °F - 35.6 °F 34% 29.73 in 10.0 mi West 6.9 mph - N/A   Unknown
7:55 PM 62.6 °F - 35.6 °F 37% 29.73 in 10.0 mi WSW 9.2 mph - N/A   Unknown
8:15 PM 60.8 °F - 37.4 °F 42% 29.73 in 10.0 mi WSW 6.9 mph - N/A   Unknown
8:35 PM 60.8 °F - 37.4 °F 42% 29.74 in 10.0 mi WSW 4.6 mph - N/A   Unknown
8:55 PM 57.2 °F - 37.4 °F 48% 29.73 in 10.0 mi SW 5.8 mph - N/A   Unknown
9:15 PM 57.2 °F - 37.4 °F 48% 29.74 in 10.0 mi WSW 6.9 mph - N/A   Unknown
9:35 PM 59.0 °F - 37.4 °F 45% 29.74 in 10.0 mi SW 8.1 mph - N/A   Unknown
9:55 PM 57.2 °F - 37.4 °F 48% 29.74 in 10.0 mi SW 6.9 mph - N/A   Unknown
10:15 PM 55.4 °F - 37.4 °F 51% 29.74 in 10.0 mi SW 3.5 mph - N/A   Unknown
10:35 PM 57.2 °F - 37.4 °F 48% 29.75 in 10.0 mi NNW 5.8 mph - N/A   Unknown
10:55 PM 57.2 °F - 37.4 °F 48% 29.76 in 10.0 mi North 3.5 mph - N/A   Unknown
11:55 PM 51.8 °F - 37.4 °F 58% 29.76 in 10.0 mi East 5.8 mph - N/A   Unknown